[[{"header":{"parameterUnit":"m.s-1","parameterCategory":1,"la1":30.2991,"la2":30.254,"lo1":-89.0895,"lo2":-89.0444,"dy":0.0017,"dx":0.0017,"nx":28,"ny":28,"refTime":"2024-05-24T21:00:00:Z","depth":0,"parameterNumber":2,"parameterNumberName":"U-component_of_WINDS"},"data":[0,0,0,0,0,0,0,0,0,0,0,0,0,0,0,0,0,0,0,0,0,0,0,0,0,0,0,0,0,0,0,0,0,0,0,0,0,0,0,0,0,0,0,0,0,0,0,0,0,0,0,0,0,0,0,0,0,0,0.4189,0.4189,0,0.4211,0.4211,0.4211,0.4196,0.4195,0.4195,0.4194,0.4218,0.4219,0.4221,0,0,0,0,0,0,0,0,0,0,0,0,0,0.4135,0.4136,0.4189,0.419,0.419,0.4211,0.4211,0.4211,0.4196,0.4195,0.4195,0.4194,0.4218,0.4219,0.4221,0,0,0,0,0,0,0,0,0,0,0,0,0,0.4158,0.4136,0.4189,0.4185,0.4185,0.4211,0.4211,0.4211,0.4196,0.4195,0.4194,0.4193,0.4217,0.4219,0.4221,0.4253,0,0,0.4227,0.4228,0,0,0,0,0,0,0,0,0.4157,0.416,0.4185,0.4185,0.4185,0.42,0.4201,0.4226,0.4197,0.4192,0.4194,0.4193,0.4213,0.4215,0.4222,0.4255,0.4256,0.4227,0.4228,0.4229,0.423,0,0,0,0,0,0,0,0.4155,0.4159,0.4198,0.4185,0.4185,0.4182,0.4184,0.4205,0.4208,0.4192,0.4191,0.4194,0.4213,0.422,0.4222,0.4256,0.4227,0.4229,0.423,0.4231,0.4314,0.4315,0,0,0,0,0,0,0.4154,0.4158,0.4197,0.4198,0.4168,0.4183,0.4186,0.4196,0.4208,0.4209,0.4195,0.4193,0.4217,0.422,0.4223,0.426,0.4229,0.4231,0.4232,0.4313,0.4314,0.4315,0,0,0,0,0,0,0.4153,0.4157,0.4196,0.4178,0.4182,0.4185,0.4197,0.4197,0.4204,0.421,0.421,0.4201,0.4216,0.422,0.4245,0.426,0.4232,0.4233,0.4312,0.4313,0.4315,0.4335,0,0,0,0,0,0,0.4151,0.4157,0.417,0.4178,0.4183,0.4218,0.4198,0.4198,0.4207,0.4205,0.4216,0.4217,0.4216,0.4242,0.4247,0.4263,0.4235,0.431,0.4312,0.4314,0.4333,0.4337,0.4341,0,0,0,0,0,0.4149,0.4175,0.417,0.4175,0.4199,0.4219,0.4222,0.422,0.4208,0.4221,0.4224,0.4216,0.4258,0.4245,0.425,0.4267,0.4309,0.4312,0.4314,0.4331,0.4336,0.434,0,0,0,0,0,0,0.417,0.4177,0.4171,0.4201,0.4209,0.4217,0.4232,0.4226,0.4239,0.4236,0.4234,0.4236,0.4262,0.4267,0.4252,0.4297,0.4282,0.4285,0.4293,0.4298,0.4302,0.43,0.4237,0,0,0,0,0,0.4178,0.4193,0.4198,0.4224,0.4229,0.423,0.4238,0.4236,0.4245,0.4249,0.4254,0.4264,0.4278,0.4289,0.4303,0.4334,0.4335,0.4347,0.4351,0.4354,0.4357,0.4371,0.4376,0.4323,0.4323,0.4323,0,0,0.4195,0.42,0.421,0.4228,0.4235,0.425,0.4233,0.4251,0.4263,0.4252,0.4275,0.4279,0.4289,0.4317,0.4329,0.4322,0.4372,0.4357,0.4359,0.4361,0.4374,0.4379,0.4384,0.4325,0.4325,0.4324,0,0,0.4233,0.4239,0.426,0.4266,0.4275,0.4275,0.428,0.4288,0.429,0.4313,0.4305,0.4318,0.4345,0.4352,0.4359,0.4397,0.439,0.4402,0.4422,0.4436,0.444,0.4444,0.4456,0.446,0.4405,0.4405,0.4405,0,0.4252,0.4276,0.4272,0.4289,0.4297,0.4286,0.4307,0.4314,0.4328,0.4333,0.4324,0.4355,0.4362,0.4389,0.4398,0.4405,0.441,0.4401,0.444,0.4443,0.4447,0.4458,0.4463,0.4406,0.4406,0.4406,0.4406,0,0.4298,0.4315,0.433,0.4342,0.4352,0.4371,0.4369,0.438,0.4375,0.4376,0.4399,0.4406,0.442,0.4427,0.4424,0.4454,0.4449,0.444,0.4424,0.4453,0.4464,0.4468,0.4408,0.4408,0.4407,0.4407,0,0,0.4351,0.4359,0.4365,0.4369,0.4377,0.439,0.4408,0.4421,0.4429,0.4439,0.4453,0.4474,0.4465,0.4473,0.4471,0.4484,0.4511,0.4473,0.4473,0.4479,0.4542,0.4548,0.4553,0.4506,0.4507,0.4508,0.4541,0,0.4389,0.4419,0.4415,0.4445,0.4459,0.4448,0.4463,0.447,0.4471,0.4483,0.4484,0.4499,0.4487,0.4491,0.4503,0.4505,0.4524,0.4503,0.4519,0.452,0.4516,0.4559,0.4566,0.4597,0.4545,0.4546,0.4547,0,0.4437,0.4446,0.4476,0.448,0.4486,0.45,0.451,0.4522,0.4529,0.4529,0.4536,0.4531,0.4549,0.4533,0.4556,0.4542,0.4549,0.455,0.4552,0.4552,0.4535,0.456,0.4607,0.4611,0.4553,0.4553,0.4552,0,0.447,0.449,0.451,0.4515,0.4521,0.453,0.4533,0.4539,0.4546,0.4556,0.456,0.4572,0.4578,0.4587,0.4584,0.4573,0.4608,0.4592,0.4608,0.4608,0.4615,0.4615,0.4662,0.4621,0.4621,0.4621,0.4621,0,0.4511,0.453,0.4525,0.4537,0.4558,0.4552,0.4573,0.4574,0.4579,0.4591,0.4583,0.4595,0.4592,0.4603,0.4601,0.462,0.4624,0.4623,0.4623,0.4623,0.4623,0.4627,0.4625,0.4622,0.4622,0.4622,0.4621,0,0.4552,0.455,0.457,0.4573,0.4574,0.4589,0.4592,0.4603,0.4602,0.4618,0.4621,0.4621,0.4634,0.4632,0.4647,0.4646,0.4669,0.4666,0.4666,0.4665,0.468,0.4678,0.4731,0.4737,0.4693,0.4693,0.4694,0,0.4578,0.4592,0.4596,0.4602,0.4606,0.4618,0.4624,0.4619,0.4627,0.4634,0.4644,0.4656,0.4665,0.4686,0.4687,0.4698,0.4695,0.4712,0.4696,0.4696,0.4693,0.4692,0.4693,0.4716,0.4716,0.4717,0.4717,0,0.4624,0.4622,0.4631,0.464,0.4648,0.4655,0.4661,0.4667,0.4663,0.4672,0.4684,0.4691,0.4705,0.4716,0.4726,0.4729,0.4722,0.4722,0.4726,0.4726,0.4725,0.4724,0.4673,0.4721,0.472,0.472,0.472,0.472,0.4657,0.4668,0.4672,0.4682,0.4686,0.4691,0.4701,0.4701,0.4711,0.4721,0.4718,0.4731,0.4736,0.4748,0.4752,0.4763,0.4756,0.4762,0.4764,0.4765,0.4766,0.4724,0.4765,0.4765,0.4765,0.4764,0.4764,0,0.4702,0.4703,0.4712,0.472,0.4728,0.472,0.4726,0.4733,0.4745,0.4749,0.4758,0.4771,0.4781,0.4783,0.4792,0.48,0.4797,0.4803,0.4802,0.4802,0.4772,0.4767,0.4805,0.4805,0.4805,0.4805,0.4805,0.4805,0.4725,0.4743,0.474,0.4759,0.476,0.4772,0.4776,0.4781,0.4784,0.4799,0.4807,0.4807,0.481,0.482,0.4829,0.4829,0.4832,0.4839,0.4838,0.4809,0.4805,0.4801,0.4796,0.484,0.484,0.4867,0.4867,0.4868]},{"header":{"parameterUnit":"m.s-1","parameterCategory":1,"la1":30.2991,"la2":30.254,"lo1":-89.0895,"lo2":-89.0444,"dy":0.0017,"dx":0.0017,"nx":28,"ny":28,"refTime":"2024-05-24T21:00:00:Z","depth":0,"parameterNumber":3,"parameterNumberName":"V-component_of_WINDS"},"data":[0,0,0,0,0,0,0,0,0,0,0,0,0,0,0,0,0,0,0,0,0,0,0,0,0,0,0,0,0,0,0,0,0,0,0,0,0,0,0,0,0,0,0,0,0,0,0,0,0,0,0,0,0,0,0,0,0,0,6.189,6.1891,0,6.1964,6.1965,6.1966,6.191,6.1907,6.1905,6.1903,6.1972,6.1976,6.1981,0,0,0,0,0,0,0,0,0,0,0,0,0,6.1692,6.1696,6.189,6.1891,6.1892,6.1964,6.1965,6.1966,6.191,6.1907,6.1904,6.1902,6.1971,6.1976,6.1981,0,0,0,0,0,0,0,0,0,0,0,0,0,6.1773,6.1698,6.189,6.1873,6.1872,6.1964,6.1965,6.1966,6.1911,6.1907,6.1904,6.19,6.197,6.1976,6.1982,6.2092,0,0,6.2,6.2003,0,0,0,0,0,0,0,0,6.1769,6.1781,6.1874,6.1874,6.1873,6.1924,6.1921,6.2008,6.1912,6.1896,6.1903,6.1898,6.1959,6.1966,6.1987,6.2096,6.2099,6.2001,6.2005,6.2007,6.2009,0,0,0,0,0,0,0,6.1763,6.1777,6.1919,6.1876,6.1875,6.1859,6.1867,6.1937,6.1947,6.1897,6.1893,6.1903,6.1958,6.1982,6.1989,6.21,6.2001,6.2006,6.201,6.2013,6.2299,6.2303,0,0,0,0,0,0,6.176,6.1773,6.1917,6.1921,6.1811,6.1866,6.1874,6.1911,6.1946,6.1948,6.1906,6.19,6.1973,6.1981,6.1991,6.2121,6.2007,6.2013,6.2017,6.2296,6.23,6.2305,0,0,0,0,0,0,6.1756,6.1774,6.1914,6.1846,6.1863,6.1873,6.1915,6.1915,6.1938,6.1953,6.1953,6.1929,6.197,6.1982,6.2067,6.2123,6.2016,6.2022,6.2291,6.2297,6.2302,6.2383,0,0,0,0,0,0,6.1751,6.1773,6.1817,6.1848,6.1867,6.1991,6.1919,6.1919,6.195,6.1943,6.1974,6.1976,6.1968,6.2058,6.2074,6.2129,6.2026,6.2286,6.2294,6.2301,6.2375,6.2391,6.2404,0,0,0,0,0,6.1744,6.1835,6.1819,6.1837,6.1922,6.1995,6.2005,6.1996,6.1955,6.1998,6.2006,6.1975,6.2115,6.2068,6.2084,6.2142,6.2282,6.2292,6.23,6.2369,6.2388,6.2404,0,0,0,0,0,0,6.1808,6.1839,6.1821,6.1926,6.1959,6.1985,6.2039,6.2017,6.206,6.2052,6.2037,6.2044,6.2133,6.2146,6.2094,6.225,6.2191,6.2204,6.2238,6.2256,6.227,6.2264,6.2031,0,0,0,0,0,6.1835,6.1894,6.1917,6.2007,6.2024,6.2029,6.206,6.2051,6.2083,6.2095,6.2111,6.2141,6.2191,6.2225,6.2272,6.2378,6.2382,6.2426,6.244,6.2452,6.2462,6.2516,6.2535,6.2334,6.2333,6.2333,0,0,6.189,6.1914,6.1952,6.202,6.2044,6.2103,6.2041,6.2106,6.2148,6.2105,6.2186,6.2198,6.2231,6.2326,6.2369,6.234,6.2519,6.2463,6.2472,6.2476,6.2527,6.2546,6.2563,6.234,6.2338,6.2338,0,0,6.202,6.2046,6.2123,6.2148,6.2186,6.2188,6.2207,6.2237,6.2244,6.2326,6.2294,6.2343,6.2431,6.2455,6.2479,6.2618,6.2589,6.2633,6.2708,6.2761,6.2777,6.279,6.2838,6.2855,6.2644,6.2644,6.2644,0,6.2083,6.2173,6.2164,6.2232,6.2261,6.2227,6.2303,6.2327,6.2378,6.2398,6.2365,6.2474,6.2493,6.2593,6.2627,6.2648,6.2666,6.2629,6.2775,6.2789,6.2802,6.2847,6.2865,6.2649,6.2648,6.2648,6.2648,0,6.2247,6.2309,6.2367,6.2418,6.2454,6.2526,6.2525,6.2563,6.255,6.2555,6.2638,6.266,6.2711,6.2734,6.2722,6.2831,6.2812,6.2778,6.2718,6.2826,6.2868,6.2885,6.2656,6.2654,6.2653,6.2652,0,0,6.2419,6.2465,6.2486,6.2508,6.2547,6.2594,6.2662,6.2713,6.2745,6.278,6.2836,6.2911,6.2879,6.2906,6.2896,6.2943,6.3048,6.2903,6.2903,6.2927,6.3168,6.3192,6.3212,6.3031,6.3034,6.3037,6.3164,0,6.2549,6.2672,6.2665,6.2779,6.2834,6.2802,6.2861,6.289,6.2897,6.2943,6.2949,6.3002,6.2958,6.2973,6.3019,6.3026,6.3096,6.3017,6.3079,6.3082,6.307,6.3234,6.326,6.3379,6.3181,6.3183,6.3185,0,6.2718,6.2761,6.288,6.2909,6.2932,6.2986,6.3032,6.3078,6.3108,6.311,6.314,6.3122,6.3188,6.3129,6.3219,6.3165,6.319,6.3198,6.3202,6.3206,6.3139,6.324,6.3417,6.3434,6.3211,6.3209,6.3207,0,6.2829,6.2917,6.2999,6.3019,6.3056,6.3094,6.311,6.3138,6.3169,6.3208,6.3227,6.3273,6.3297,6.3332,6.3326,6.3283,6.3417,6.3357,6.3417,6.3417,6.3445,6.3443,6.3627,6.3465,6.3465,6.3465,6.3464,0,6.2974,6.3047,6.3049,6.3099,6.318,6.3171,6.325,6.3262,6.3287,6.3337,6.3312,6.3359,6.3349,6.3395,6.339,6.3464,6.3476,6.3477,6.3474,6.3478,6.3478,6.3493,6.3483,6.3469,6.3468,6.3467,6.3466,0,6.3111,6.3115,6.3202,6.323,6.3239,6.3297,6.3319,6.3365,6.337,6.3433,6.3448,6.3454,6.3507,6.3505,6.3564,6.3561,6.3651,6.364,6.3642,6.3638,6.3698,6.3692,6.3896,6.3921,6.3745,6.3747,6.3748,0,6.3202,6.3258,6.3292,6.3325,6.3345,6.3398,6.3429,6.3422,6.3455,6.3494,6.3535,6.3586,6.3626,6.3712,6.372,6.3765,6.3753,6.3822,6.376,6.3761,6.3752,6.3748,6.3752,6.3834,6.3836,6.3837,6.3839,0,6.3363,6.3363,6.341,6.3458,6.3497,6.3534,6.3568,6.3595,6.3591,6.363,6.3684,6.3716,6.3777,6.3827,6.387,6.3884,6.386,6.3858,6.3874,6.3878,6.3875,6.3875,6.3673,6.3853,6.3852,6.3851,6.385,6.3849,6.3479,6.3526,6.3558,6.3611,6.3636,6.3668,6.3712,6.3723,6.3769,6.382,6.3812,6.3873,6.39,6.3955,6.3974,6.4019,6.3994,6.4018,6.4024,6.4029,6.4035,6.387,6.4027,6.4027,6.4026,6.4026,6.4026,0,6.3637,6.3655,6.3705,6.3753,6.3794,6.3771,6.3807,6.3842,6.3896,6.3925,6.3965,6.4027,6.4075,6.4087,6.4133,6.4167,6.4157,6.4179,6.4175,6.4178,6.4055,6.4036,6.4186,6.4186,6.4186,6.4186,6.4186,6.4186,6.3724,6.3802,6.3805,6.3895,6.3912,6.3973,6.3995,6.4023,6.4046,6.4117,6.4157,6.4166,6.4187,6.4234,6.4276,6.4278,6.4295,6.4321,6.4319,6.4203,6.4187,6.4172,6.4153,6.4326,6.4326,6.4437,6.4439,6.4439]}]]